Location: Aula-Vintri
(58.3875°N, 22.4322°E)
Time: 06:06:10
(UTC+00:00)

USA 186 - Pass Details

Date: 13 October 2019
Orbit: 261 x 450 km, 96.9° (Epoch: 07 October)

Event Time Altitude Azimuth Distance (km) Brightness Sun altitude
Exits shadow 17:07:28 28° 79° (E) 691 2.3 -13.3°
Maximum altitude 17:07:44 29° 67° (ENE) 678 2.3 -13.4°
Drops below altitude 10° 17:10:08 10° 5° (N) 1,275 4.2 -13.7°
Sets 17:12:05 0° 353° (N) 2,079 5.5 -13.9°
